Flag for Norfolk Island Weather past 2 weeks in Kingston, Norfolk Island

Now
73 °F

Passing clouds.


Feels Like: 72 °F
Forecast: 74 / 79 °F
Wind: 8 mph from Northeast

Location: Norfolk Island Airport

Current Time: Mar 2, 2015 at 7:31:22 PM

Latest Report: Mar 2, 2015 at 6:30 PM


Visibility: N/A

Pressure: 29.74 "Hg

Humidity: 89%

Dew point: 70 °F

Location of KingstonLocation

Historic Weather in Kingston — Graph

°F

Kingston temperature yesterday

Maximum temperature yesterday: 75 °F (at 11:00 AM)
Minimum temperature yesterday: 72 °F (at 12:30 AM)
Average temperature yesterday: 73 °F

Past Weeks' High & Low Weather Summary

 TemperatureHumidityPressure
High77 °F (Feb 16, 10:30 AM)100% (Feb 18, 8:15 AM)30.12 "Hg (Feb 18, 8:15 AM)
Low66 °F (Feb 25, 4:00 AM)50% (Feb 20, 4:00 PM)29.74 "Hg (Feb 26, 3:30 PM)
Average72 °F81%29.95 "Hg
* Reported Feb 15 6:30 PM — Mar 2 6:30 PM, Kingston, Weather by CustomWeather, © 2015

Note: Actual official high and low records may vary slightly from our data, if they occured in-between our weather recording intervals... More about our weather records

Advertising

Kingston weather history for previous 24 hours

 ConditionsComfort  
Time TempWeatherWind HumidityBarometerVisibility
6:30 PM
Mon, Mar 2
73 °FPassing clouds.8 mph89%29.74 "HgN/A
6:00 PM73 °FScattered clouds.8 mph89%29.74 "Hg6 mi
5:30 PM73 °FPartly sunny.9 mph94%29.74 "Hg4 mi
5:00 PM73 °FBroken clouds.9 mph94%29.74 "Hg4 mi
4:30 PM73 °FPartly sunny.6 mph94%29.74 "Hg6 mi
3:30 PM75 °FCloudy.7 mph94%29.74 "HgN/A
3:28 PM75 °FCloudy.7 mph94%29.74 "HgN/A
2:30 PM75 °FSprinkles. Broken clouds.8 mph89%29.77 "Hg6 mi
1:30 PM75 °FSprinkles. Broken clouds.7 mph89%29.77 "HgN/A
12:30 PM73 °FScattered showers. Broken clouds.8 mph94%29.80 "Hg3 mi
12:00 PM73 °FDrizzle. Partly sunny.9 mph100%29.80 "Hg3 mi
11:30 AM73 °FScattered showers. Broken clouds.9 mph94%29.80 "Hg4 mi
11:22 AM73 °FDrizzle. Broken clouds.8 mph94%29.80 "Hg3 mi
11:00 AM73 °FSleet. Broken clouds.12 mph94%29.80 "Hg3 mi
10:30 AM73 °FSprinkles. Partly sunny.9 mph94%29.80 "Hg1 mi
10:00 AM72 °FLow clouds.9 mph100%29.83 "Hg4 mi
9:30 AM73 °FDrizzle. Broken clouds.9 mph94%29.83 "Hg4 mi
9:00 AM72 °FScattered showers. Partly sunny.10 mph100%29.80 "Hg5 mi
8:30 AM73 °FSprinkles. Partly sunny.8 mph94%29.80 "Hg2 mi
8:00 AM73 °FScattered showers. Broken clouds.8 mph94%29.80 "Hg5 mi
7:30 AM72 °FBroken clouds.7 mph100%29.80 "Hg4 mi
7:00 AM72 °FMostly cloudy.9 mph100%29.80 "Hg4 mi
6:34 AM72 °FMostly cloudy.10 mph94%29.80 "Hg4 mi
6:00 AM72 °FMostly cloudy.8 mph94%29.80 "Hg3 mi
5:30 AM72 °FMostly cloudy.10 mph94%29.80 "Hg2 mi
5:00 AM72 °FMostly cloudy.14 mph94%29.80 "Hg1 mi
4:30 AM72 °FMostly cloudy.8 mph100%29.80 "Hg3 mi
4:00 AM72 °FMostly cloudy.10 mph94%29.80 "Hg3 mi
3:30 AM72 °FMostly cloudy.14 mph94%29.80 "Hg2 mi
2:30 AM73 °FLow clouds.16 mph94%29.80 "Hg1 mi
1:30 AM73 °FLow clouds.16 mph94%29.80 "Hg4 mi
1:00 AM73 °FMostly cloudy.17 mph94%29.83 "Hg4 mi
12:30 AM73 °FMostly cloudy.14 mph94%29.83 "Hg4 mi
12:00 AM73 °FLow clouds.16 mph94%29.83 "Hg4 mi
11:30 PM
Sun, Mar 1
73 °FSprinkles. Low clouds.18 mph94%29.83 "Hg2 mi
10:30 PM73 °FLow clouds.21 mph89%29.86 "Hg6 mi
10:00 PM73 °FPassing clouds.18 mph89%29.86 "Hg6 mi
9:30 PM73 °FOvercast.17 mph89%29.86 "Hg6 mi
8:30 PM73 °FPassing clouds.16 mph89%29.86 "Hg5 mi
7:30 PM73 °FPartly cloudy.25 mph94%29.80 "HgN/A
7:00 PM73 °FLow clouds.21 mph94%29.80 "Hg4 mi
Weather by CustomWeather, © 2015

See weather overviewHow to use our weather pages